Location: Bethune
(34.4150°N, 80.3490°W)
Time: 01:28:33
(UTC-05:00)

ISS - Visible Passes

Search period start: 02 December 2023 00:00
Search period end: 12 December 2023 00:00
Orbit: 416 x 417 km, 51.6° (Epoch: 01 December)

Date Brightness Start Highest point End Pass type
(mag) Time Alt. Az. Time Alt. Az. Time Alt. Az.
02 Dec -1.5 17:45:05 10° NNE 17:45:48 10° NNE 17:46:30 10° NE visible
02 Dec -0.9 19:19:43 10° NW 19:20:09 13° NW 19:20:09 13° NW visible
03 Dec -3.0 18:31:26 10° NNW 18:34:20 35° NNE 18:34:20 35° NNE visible
04 Dec -2.4 17:43:16 10° NNW 17:45:57 22° NNE 17:48:37 10° E visible
04 Dec -1.6 19:19:41 10° WNW 19:21:47 27° W 19:21:47 27° W visible
05 Dec -3.5 18:30:56 10° NW 18:34:16 67° SW 18:36:41 17° SE visible
06 Dec -3.8 17:42:23 10° NW 17:45:42 61° NE 17:49:00 10° ESE visible
07 Dec -0.8 18:31:08 10° W 18:33:35 19° SW 18:36:01 10° S visible
08 Dec -2.0 17:41:58 10° WNW 17:45:05 36° SW 17:48:10 10° SSE visible
10 Dec 0.1 17:43:03 10° WSW 17:44:05 11° SW 17:45:07 10° SW visible
